Terminal Aerodrome Forecast
Issued by NWS

Home | Current Version | Previous Version | Text Only | Print | Product List | Glossary On
Versions: 1 2 3 4 5 6 7 8 9 10 11 12 13 14 15 16 17 18 19 20 21 22 23 24 25
000
FTPQ31 PGUM 272344
TAFGUM
TAF

TAF
PGSN 272343Z 2800/2824 06015KT P6SM VCSH SCT016 BKN050 BKN120
      TEMPO 2800/2801 BKN018 BKN050
     FM280200 06016G26KT P6SM VCSH FEW018 SCT050 BKN120
     FM281000 07014KT P6SM VCSH FEW020 SCT050 SCT120=

USA.gov is the U.S. government's official web portal to all federal, state and local government web resources and services.